GW4190 Weather Reports


Display with metric or nautical units.
time (UTC)temp
F
wind
direction
speed
MPH
gust
MPH
rain 1hr
in
rain 24hr
in
rain mn
in
humidity
%
barometer
mb
20260505213102 51 287 12.0 28.0 0.08 0.08 0.08 94 1006.9
20260505211602 57 127 9.0 22.0 0.02 0.02 0.02 81 1005.8
20260505210056 62 210 9.0 20.0 0.00 0.00 0.00 57 1004.7
20260505204556 63 210 10.0 19.0 0.00 0.00 0.00 56 1004.4
20260505203059 63 115 13.0 23.0 0.00 0.00 0.00 58 1004.5
20260505201559 62 149 8.0 24.0 0.00 0.00 0.00 58 1004.3
20260505200058 62 152 12.0 23.0 0.00 0.00 0.00 59 1004.4
20260505194558 62 152 10.0 21.0 0.00 0.00 0.00 60 1004.2
20260505193055 63 210 13.0 26.0 0.00 0.00 0.00 59 1004.3
20260505191605 63 149 13.0 26.0 0.00 0.00 0.00 59 1004.5
20260505184601 64 210 6.0 22.0 0.00 0.00 0.00 58 1004.9
20260505183114 63 130 8.0 22.0 0.00 0.00 0.00 60 1005.0
20260505181553 62 148 15.0 35.0 0.00 0.00 0.00 62 1005.0
20260505180055 62 119 13.0 24.0 0.00 0.00 0.00 61 1004.8
20260505174554 61 123 13.0 29.0 0.00 0.01 0.00 62 1005.0
20260505173057 61 210 10.0 22.0 0.00 0.01 0.00 63 1005.3
20260505171600 61 210 8.0 25.0 0.00 0.01 0.00 62 1005.9
20260505170053 60 210 13.0 24.0 0.00 0.01 0.00 64 1005.5
20260505164554 59 146 14.0 26.0 0.00 0.01 0.00 66 1005.8
20260505163055 58 140 10.0 23.0 0.00 0.01 0.00 68 1006.4
20260505161621 58 153 11.0 21.0 0.00 0.01 0.00 67 1006.5
20260505153059 58 210 8.0 22.0 0.00 0.02 0.00 68 1006.9
20260505151618 55 148 8.0 19.0 0.00 0.02 0.00 72 1006.9
20260505124554 52 159 13.0 25.0 0.00 0.02 0.00 70 1006.2
20260505123053 52 132 11.0 24.0 0.00 0.02 0.00 70 1006.5
20260505121554 51 143 11.0 20.0 0.00 0.02 0.00 71 1006.6
20260505120111 51 210 9.0 19.0 0.00 0.02 0.00 71 1006.9
20260505114555 50 210 11.0 22.0 0.00 0.02 0.00 71 1006.8
20260505113054 50 159 11.0 21.0 0.00 0.02 0.00 72 1006.8
20260505111553 49 152 11.0 20.0 0.00 0.02 0.00 72 1006.9
20260505101555 49 210 11.0 21.0 0.00 0.02 0.00 71 1006.7
20260505100058 49 142 10.0 22.0 0.00 0.02 0.00 71 1006.7
20260505094558 49 162 9.0 21.0 0.00 0.02 0.00 70 1006.6
20260505093058 49 210 12.0 22.0 0.00 0.02 0.00 70 1006.7
20260505091553 49 176 12.0 22.0 0.00 0.02 0.00 69 1006.8
20260505090056 49 185 11.0 20.0 0.00 0.02 0.00 68 1006.7
20260505084557 49 179 11.0 23.0 0.00 0.02 0.00 68 1006.7
20260505083056 49 210 13.0 22.0 0.00 0.02 0.00 67 1006.8
20260505081600 49 163 12.0 21.0 0.00 0.02 0.00 67 1006.8
20260505080056 48 154 12.0 21.0 0.00 0.02 0.00 67 1006.9
20260505074600 48 197 12.0 21.0 0.00 0.02 0.00 67 1006.9
20260505073105 48 210 11.0 20.0 0.00 0.02 0.00 67 1006.9
20260505071600 48 210 10.0 19.0 0.00 0.02 0.00 68 1006.9
20260505070054 47 150 11.0 20.0 0.00 0.02 0.00 70 1006.9
20260505064555 47 150 10.0 19.0 0.00 0.02 0.00 71 1007.0
20260505063055 47 165 10.0 21.0 0.00 0.02 0.00 71 1007.1
20260505061558 47 150 10.0 16.0 0.00 0.02 0.00 70 1006.9
20260505060056 47 145 9.0 16.0 0.00 0.02 0.00 70 1007.0
20260505054626 47 175 9.0 16.0 0.00 0.02 0.00 69 1007.0
20260505053111 48 171 11.0 18.0 0.00 0.02 0.00 68 1007.1
20260505051553 48 186 10.0 19.0 0.00 0.02 0.00 68 1006.9
20260505041601 48 173 10.0 17.0 0.00 0.02 0.00 69 1006.9
20260505040057 48 160 8.0 14.0 0.00 0.02 0.00 69 1006.8
20260505034554 48 152 8.0 15.0 0.00 0.02 0.02 70 1006.9
20260505033055 48 144 8.0 15.0 0.00 0.02 0.02 70 1006.8
20260505031608 48 151 7.0 13.0 0.00 0.02 0.02 70 1007.0
20260505030053 47 167 6.0 12.0 0.00 0.02 0.02 73 1007.0
20260505024559 46 139 7.0 12.0 0.00 0.02 0.02 75 1007.0
20260505023116 46 134 7.0 12.0 0.00 0.02 0.02 75 1007.1
20260505021552 46 157 6.0 11.0 0.00 0.02 0.02 76 1007.3
20260505020057 47 182 7.0 13.0 0.00 0.02 0.02 74 1007.2
20260505014604 47 220 7.0 13.0 0.00 0.02 0.02 74 1007.3
20260505013107 46 165 7.0 14.0 0.00 0.02 0.02 76 1007.2
20260505011555 45 210 7.0 12.0 0.00 0.02 0.02 78 1006.8
20260505010053 45 146 7.0 13.0 0.00 0.02 0.02 79 1006.7
20260505004558 45 169 8.0 13.0 0.00 0.02 0.02 79 1006.7
20260505003057 45 160 8.0 15.0 0.00 0.02 0.02 80 1006.3
20260505001559 44 148 7.0 13.0 0.00 0.02 0.02 83 1005.9
20260505000116 44 164 5.0 11.0 0.00 0.02 0.02 84 1005.7
20260504234556 44 121 4.0 10.0 0.00 0.02 0.02 84 1005.6
20260504233056 44 146 4.0 11.0 0.00 0.02 0.02 84 1005.5
20260504231554 44 228 2.0 8.0 0.00 0.02 0.02 84 1005.3
20260504230106 45 246 4.0 10.0 0.00 0.02 0.02 82 1005.2
20260504224556 46 246 5.0 11.0 0.00 0.02 0.02 81 1005.0
20260504223105 46 223 6.0 15.0 0.00 0.02 0.02 80 1004.8
20260504221603 46 253 6.0 16.0 0.00 0.02 0.02 81 1004.8
20260504220100 46 257 7.0 17.0 0.00 0.02 0.02 81 1004.6
20260504214558 46 265 11.0 25.0 0.00 0.02 0.02 81 1004.8